Погода в Ряжске

Погода в Ряжске : погода сейчас, прогноз погоды и архив. Всё, что Вы хотите узнать о погоде в Ряжске!

Хотите узнать прогноз погоды в Ряжске? Тогда Вам сюда: Погода в Ряжске

Поиск расширенной информации на нашем сайте:

Другие новости

Новости СМИ2

Главная страница сайта

Новости сайта

03.07.2017

Напоминаем, что на нашем специализированном сайте Метеоцентр.Азия вы можете получить высокодетализированные автоматические прогнозы погоды по пунктам России, СНГ и мира в авиационном формате (включающие направление и скорость ветра, видимость, явления погоды, количество и форму облачности, нижнюю и верхнюю границу облачности).


Погода в Ряжске - сегодня

Время (UTC), дата Ветер
(°,м/с) 
Видим.   Явления Облачность Т
(°С)
Тd
(°С)
f(%) Тe
(°С)
Pmin
(гПа)
dP
(гПа)
Po
(мм)
O2
(г/м3)
Тmin Tmax R s Состояние
почвы
18 14.08.18 тихо ()   н/о    3/0 верхняя 
[Ci sp]
+15.7 +12.1 79 +20  1016.1  0.8  751  284           
21 14.08.18 тихо ()   н/о    3/0 верхняя 
[Ci sp]
+13.2 +11 87 +16  1016.8  0.6  751  287           
03 15.08.18 120 (ЮВ) 10 км    8/4 600 м кучево-дожд., верхняя 
[Cb calv|Ci sp]
+14.5 +11.4 82 +19  1016.8  -0.2  751  285  +12.5         
06 15.08.18 200 (Ю) 10 км    6/0 средняя, верхняя 
[Ac trans|Ci sp]
+22.6 +10.7 47 +25  1015.6  -0.7  751  277           
09 15.08.18 180 (Ю) 10 км    8/3 1000 м кучево-дожд., средняя, верхняя 
[Cb calv|Ac trans|Ci sp]
+23.8 +11.1 45 +26  1015.3  -0.3  750  276           
12 15.08.18 190 (Ю) 10 км    6/0 средняя, верхняя 
[Ac trans|Ci sp]
+29.1 +10.7 32 +31  1013.7  -1.3  749  271           
18 15.08.18 170 (Ю) н/о    4/0 средняя 
[Ac trans]
+24 +12 47 +28  1012.6  0.2  749  275           
21 15.08.18 150 (ЮВ) н/о  в посл. час ливневой дождь  9/3 1000 м кучево-дожд., средняя 
[Cb calv|Ac trans]
+18.6 +16.6 88 +32  1012.9  749  279           
03 16.08.18 тихо ()   4000 м  дымка  3/0 верхняя 
[Ci fib]
+15 +13.6 91 +21  1014.2  0.8  749  283  +14.4    0.4     
06 16.08.18 300 (СЗ) 10 км    8/0 средняя, верхняя 
[Ac trans|Ci sp]
+23.4 +16.4 65 +35  1014.6  0.8  750  275           
09 16.08.18 290 (З) 10 км    9/5 600 м кучево-дожд., средняя, верхняя 
[Cb calv|Ac trans|Ci sp]
+25.3 +13.5 48 +31  1015  0.4  750  274           
12 16.08.18 270 (З) 10 км    9/0 средняя, верхняя 
[Ac trans|Ci sp]
+24.9 +14.4 52 +33  1015.7  0.7  751  274           
18 16.08.18 010 (С) н/о    10/8 600 м средняя 
[Sc|Ac As]
+21.5 +13.3 60 +27  1017.2  1.5  752  278           
21 16.08.18 360 (С) н/о    8/4 1000 м средняя 
[Sc|Ac trans]
+18.2 +13.9 76 +26  1018.1  0.7  752  281           
00 17.08.18 360 (С) 4000 м  дымка  ясно 
+15.2 +14.1 93 +23  1019.4  1.2  753  285           
03 17.08.18 360 (С) 4000 м  дымка  10/10 600 м 
[Sc]
+14.8 +13.8 94 +23  1020.7  1.2  754  285  +14         
06 17.08.18 040 (СВ) 10 км    8/8 1000 м 
[Cu med, cong]
+19 +13 68 +25  1021.6  1.1  755  282           
09 17.08.18 030 (СВ) 10 км    ясно 
+22.7 +9.2 42 +23  1021  -0.4  755  279           
12 17.08.18 030 (СВ) 10 км    6/6 1000 м 
[Cu hum]
+24.5 +7.4 33 +25  1020.8  0.1  755  278           
18 17.08.18 030 (СВ) н/о    3/0 средняя, верхняя 
[Ac trans|Ci sp]
+16.8 +8.8 59 +18  1021.8  0.7  755  285           
21 17.08.18 тихо ()   н/о    ясно 
+11.4 +9.4 87 +12  1022.4  0.3  755  290           
00 18.08.18 тихо ()   4000 м  дымка  ясно 
+9.3 +8.3 93 +9  1023.2  0.6  756  293           
03 18.08.18 тихо ()   4000 м  дымка  3/0 верхняя 
[Ci sp]
+8.8 +8.3 97 +9  1024.1  0.9  756  294  +8.1         
06 18.08.18 050 (СВ) 10 км    ясно 
+19.9 +9.9 52 +22  1023.8  0.2  757  282           
09 18.08.18 050 (СВ) 10 км    8/8 1000 м 
[Cu hum]
+23.6 +6.5 33 +24  1022.9  -0.7  756  279           
Время (UTC), дата Ветер
(°,м/с) 
Видим.   Явления Облачность Т
(°С)
Тd
(°С)
f(%) Тe
(°С)
Pmin
(гПа)
dP
(гПа)
Po
(мм)
O2
(г/м3)
Тmin Tmax R s Состояние
почвы

Для получения пояснительной информации подведите курсор к названию столбца.

ПОГОДА в Ряжске - архив

Всё, что Вы хотите узнать о погоде в Ряжске - удобно и подробно!

Выберите нужную дату (начиная с 1 января 2015* года) и нажмите кнопку "Найти".
Будут отображены архивные сводки погоды по пункту Ряжск, начиная с указанной даты.


Отображать данные в формате CSV (для использования в таблицах Excel)


Внимание! Наш архив погоды предназначен исключительно для личного некоммерческого использования в познавательных целях. Если Вам необходимы официальные справки о состоянии погоды (для производственных, юридических, коммерческих и т.п. целей), обращайтесь в органы Росгидромета.

*Примечание: данная дата относится к архиву по метеостанциям СССР (Россия, СНГ, Балтия).
Архив по метеостанциям Зарубежной Европы и Азии (кроме Китая) хранится 10 дней, по другим регионам земного шара (Китай, Африка, Америка, Австралия, Океания) - 1 день.

Ряжск - район местоположения метеостанции


Название, широта, долгота, высота метеостанции:
Ряжск 53.7°ш. 40.1°д. 127 м над ур. моря [Российская Федерация]

Дополнительная информация

В oтличие oт бoльшинства пoгoдных сайтoв мы публикуем пoдрoбную метеoинфoрмацию в детальнoм прoфессиoнальнoм фoрмате.

Характеристики температуры и влажнoсти вoздуха измеряются на высoте 2 м в тени вдали oт зданий и деревьев.
Скoрoсть ветра измеряется на высoте 10 м (на урoвне рoста челoвека скoрoсть ветра ниже в 1.5-2 раза). Если метеoстанция нахoдится в гoрoде или в лесу, тo скoрoсть ветра занижена на 2-4 м/с пo сравнению с oткрытым местoм. Скoрoсть ветра над акватoриями крупных рек и oзёр, а также на вершинах хoлмoв на 2-5 м/с выше, чем в oбычных услoвиях.
Атмoсфернoе давление в разных тoчках местнoсти мoжет значительнo oтличаться oт давления на метеoстанции, в зависимoсти oт услoвий рельефа (при пoдъёме на 10 м давление пoнижается примернo на 1 мм рт.ст.).